Regional Weather Roundup
Issued by NWS Albany, NY

Home | Current Version | Previous Version | Text Only | Print | Product List | Glossary On
Versions: 1 2 3 4 5 6 7 8 9 10 11 12 13 14 15 16 17 18 19 20 21 22 23 24 25 26 27 28 29 30 31 32 33 34 35 36 37 38 39 40 41 42 43 44 45 46 47 48 49 50
000
ASUS41 KALY 191710
RWRALY

NEW YORK STATE HOURLY WEATHER ROUNDUP
NATIONAL WEATHER SERVICE ALBANY NY
1200 PM EST FRI DEC 19 2014

NOTE: "FAIR" INDICATES FEW OR NO CLOUDS BELOW 12,000 FEET WITH NO
SIGNIFICANT WEATHER AND/OR NO OBSTRUCTIONS TO VISIBILITY.

NYZ032-033-038>043-046>054-057>066-NYZ062>081-191800-
EAST


CITY           SKY/WX    TMP DP  RH WIND       PRES   REMARKS
ALBANY         CLOUDY    30  20  66 W16G26    30.06S WCI  19
GLENS FALLS    CLOUDY    31  19  61 N14       30.04S WCI  21
POUGHKEEPSIE   CLOUDY    37  21  52 N10       30.02F WCI  30
NEWBURGH       PTSUNNY   34  23  64 NW14G25   30.04F WCI  24
MONTGOMERY     CLOUDY    34  20  56 NW12      30.02F WCI  25
WHITE PLAINS   PTSUNNY   35  20  54 NW14G20   30.00F WCI  26
ISLIP          PTSUNNY   36  22  56 NW13      29.99F WCI  27
NEW YORK CITY  PTSUNNY   35  21  56 N20G25    30.04F WCI  24
CENTRAL PARK   PTSUNNY   36  19  50 N9G17     30.06F WCI  29
$$

NYZ005>009-017-018-044>046-055-056-191800-
CENTRAL


CITY           SKY/WX    TMP DP  RH WIND       PRES   REMARKS
FULTON         CLOUDY    26  20  77 W7        30.13F WCI  18
SYRACUSE       CLOUDY    25  22  88 NW7       30.14F WCI  17
ROME           CLOUDY    26  20  77 W12       30.13S WCI  16
ELMIRA         CLOUDY    28  20  71 NW12      30.11F WCI  18
BINGHAMTON     LGT SNOW  22  20  92 NW13      30.04F FOG     WCI  10
MONTICELLO     CLOUDY    27  18  69 NW14G21   30.02S WCI  15
$$

NYZ026>034-041>043-191800-
NORTH


CITY           SKY/WX    TMP DP  RH WIND       PRES   REMARKS
WATERTOWN      CLOUDY    26  16  65 W7        30.14S WCI  18
FORT DRUM      NOT AVBL
MASSENA        CLOUDY    21  14  74 W8        30.15R WCI  11
SARANAC LAKE   CLOUDY    19  15  84 VRB5      29.99S FOG     WCI  12
PLATTSBURGH    CLOUDY    26  18  71 CALM      30.08S
$$

NYZ001>004-010>016-019>021-191800-
WEST


CITY           SKY/WX    TMP DP  RH WIND       PRES   REMARKS
NIAGARA FALLS  PTSUNNY   27  20  75 W14       30.18F WCI  16
BUFFALO        FLURRIES  27  20  75 W9        30.17F WCI  18
DUNKIRK        CLOUDY    27  20  75 W7        30.20F WCI  19
JAMESTOWN      CLOUDY    25  19  80 NW10      30.12S WCI  15
WELLSVILLE     CLOUDY    23  19  85 NW14      30.07F WCI  11
ROCHESTER      CLOUDY    27  21  78 W8        30.16S WCI  19
PENN YAN       CLOUDY    26  21  81 W6        30.12F WCI  19
$$

             KEY
       WCI = WIND CHILL INDEX
       VSB = VISIBILITY
       HX  = HEAT INDEX
$$


USA.gov is the U.S. government's official web portal to all federal, state and local government web resources and services.